Flag for U.S.A. Weather past 2 weeks in Rapid City, South Dakota, U.S.A.

Now
48 °F

Sunny.


Feels Like: 43 °F
Forecast: 43 / 61 °F
Wind: 14 mph from Northwest

Location: Ellsworth Air Force Base

Current Time: Jan 26, 2015 at 7:51:41 AM

Latest Report: Jan 26, 2015 at 6:58 AM


Visibility: 10 mi

Pressure: 30.03 "Hg

Humidity: 48%

Dew point: 29 °F

Location of Rapid CityLocation

Historic Weather in Rapid City — Graph

°F

Rapid City temperature yesterday

Maximum temperature yesterday: 52 °F (at 11:58 PM)
Minimum temperature yesterday: 33 °F (at 7:58 PM)
Average temperature yesterday: 42 °F

Past Weeks' High & Low Weather Summary

 TemperatureHumidityPressure
High56 °F (Jan 24, 11:58 AM)93% (Jan 21, 8:55 AM)30.71 "Hg (Jan 21, 8:55 AM)
Low7 °F (Jan 12, 6:58 AM)24% (Jan 22, 2:58 PM)29.72 "Hg (Jan 24, 12:54 PM)
Average33 °F61%30.14 "Hg
* Reported Jan 11 5:58 AM — Jan 26 5:58 AM, Rapid City, Weather by CustomWeather, © 2014

Note: Actual official high and low records may vary slightly from our data, if they occured in-between our weather recording intervals... More about our weather records

Advertising

Rapid City weather history for previous 24 hours

 ConditionsComfort  
Time TempWeatherWind HumidityBarometerVisibility
5:58 AM
Jan 26
51 °FClear.15 mph43%30.01 "Hg10 mi
4:58 AM51 °FClear.15 mph43%29.99 "Hg10 mi
3:58 AM52 °FClear.18 mph42%29.98 "Hg10 mi
2:58 AM52 °FClear.16 mph43%29.97 "Hg10 mi
1:58 AM53 °FClear.21 mph42%29.97 "Hg10 mi
12:59 AM52 °FClear.18 mph44%29.97 "Hg10 mi
11:58 PM
Jan 25
52 °FClear.17 mph45%29.96 "Hg10 mi
10:58 PM51 °FClear.10 mph48%29.96 "Hg10 mi
9:58 PM50 °FClear.14 mph51%29.97 "Hg10 mi
9:03 PM48 °FClear.13 mph54%29.94 "Hg1 mi
8:58 PM47 °FClear.15 mph58%29.98 "Hg1 mi
7:58 PM33 °FClear.8 mph68%30.03 "Hg10 mi
6:58 PM40 °FClear.5 mph52%30.03 "Hg10 mi
5:58 PM39 °FClear.No wind52%30.02 "Hg10 mi
4:58 PM45 °FPassing clouds.2 mph42%29.99 "Hg10 mi
3:58 PM49 °FOvercast.8 mph37%29.98 "Hg10 mi
2:58 PM49 °FOvercast.8 mph32%30.00 "Hg10 mi
1:58 PM49 °FOvercast.10 mph33%30.01 "Hg10 mi
12:58 PM47 °FOvercast.8 mph32%30.03 "Hg10 mi
11:58 AM46 °FOvercast.8 mph34%30.05 "Hg10 mi
10:58 AM45 °FSunny.5 mph38%30.08 "Hg10 mi
9:58 AM42 °FSunny.5 mph44%30.08 "Hg10 mi
8:58 AM38 °FSunny.8 mph53%30.10 "Hg10 mi
7:58 AM36 °FSunny.16 mph57%30.09 "Hg10 mi
Weather by CustomWeather, © 2014

See weather overviewHow to use our weather pages